Wind_Speed
5 5 5 5 5 4 4 4 4 4 5 5 5 5 5 6 6 6 6 5 5 4 3 2 2 1 1 1 1 2 3 3 3 4 5 5 6 7 7 6 6 6 5
4 4 4 5 5 4 4 4 4 4 4 5 5 6 6 6 6 6 6 5 5 4 3 2 1 1 0 1 1 2 3 3 3 4 5 6 7 7 8 8 7 7 6
4 4 4 4 4 4 3 3 3 4 4 5 5 5 5 6 5 5 5 5 5 4 3 3 2 1 1 1 2 2 3 3 4 4 5 6 7 7 8 9 9 8 7
5 4 4 4 4 4 3 3 3 4 4 4 5 5 5 5 5 5 5 5 4 4 4 3 2 2 2 2 2 3 3 4 4 4 5 7 8 8 8 9 9 9 9
5 4 4 4 3 3 3 3 3 3 4 4 5 5 6 6 5 5 5 5 5 4 4 4 3 3 3 3 3 4 4 4 5 5 5 7 8 8 9 9 9 9 9
5 5 4 3 3 2 2 2 2 3 4 4 5 6 6 6 6 5 6 6 6 5 5 4 4 3 3 4 4 5 5 5 5 6 6 7 8 8 9 9 10 10 10
5 5 4 3 2 2 1 1 2 3 4 4 5 6 6 6 6 6 6 6 6 6 6 5 4 4 4 4 4 5 5 5 6 6 7 7 8 8 9 9 10 10 10
5 4 4 3 2 1 1 2 2 3 4 5 5 6 7 7 7 7 7 7 7 6 6 6 5 5 4 4 5 5 6 6 6 6 7 7 8 8 8 9 9 10 10
5 4 4 4 3 2 2 2 2 3 4 5 5 6 7 8 8 8 8 8 7 7 6 6 5 5 4 4 5 5 6 6 6 6 7 7 7 8 8 9 9 9 10
6 5 4 4 3 2 2 2 3 3 3 4 5 6 7 8 9 8 8 8 8 7 7 6 6 5 4 4 4 5 5 6 6 7 7 8 8 8 9 9 9 9 9
6 5 4 3 3 2 2 1 2 3 3 4 5 6 7 8 8 8 8 8 8 8 7 6 6 5 4 3 3 4 5 6 6 7 7 8 8 8 9 9 9 9 9
6 6 5 4 3 2 2 1 2 2 3 4 5 6 7 8 8 8 9 9 8 8 8 7 6 5 4 3 3 3 4 5 6 7 7 7 8 9 9 9 10 10 9
6 5 5 4 3 2 1 1 1 2 3 4 5 6 6 7 8 8 9 9 8 9 8 7 6 5 4 3 2 3 3 4 5 6 7 7 7 8 9 10 10 10 10
6 5 5 4 3 3 1 0 1 2 3 4 5 5 6 7 8 8 9 8 8 9 8 7 6 5 4 3 2 2 3 4 5 5 6 7 7 8 9 10 10 10 11
7 5 5 5 4 3 2 1 2 2 3 4 4 5 6 7 7 8 8 8 8 8 8 7 6 5 5 4 3 2 1 2 3 4 5 6 7 8 9 9 10 10 10
7 6 5 5 4 3 2 1 1 1 2 3 4 4 5 6 7 8 8 8 8 8 8 8 7 6 5 4 3 2 1 1 2 4 5 5 6 7 8 9 10 10 10
8 7 6 5 5 3 2 1 1 1 2 2 3 4 5 7 8 8 8 8 8 9 8 8 7 7 6 6 5 3 2 2 2 3 4 5 6 6 7 8 9 11 10
8 7 6 5 4 3 2 2 1 1 1 2 3 4 5 7 8 8 8 8 8 8 8 8 7 7 7 6 5 4 4 3 3 3 4 4 5 6 6 8 9 10 10
8 7 6 5 4 3 3 3 2 2 2 2 3 4 5 7 7 8 7 8 8 8 8 8 7 7 7 6 6 5 5 4 4 4 4 4 5 5 7 8 8 9 9
8 7 6 5 5 4 3 3 3 3 3 3 3 4 5 6 7 7 7 7 8 8 8 8 8 7 7 7 7 6 5 5 4 4 5 5 5 5 6 7 8 9 9
9 8 7 6 5 4 4 4 4 3 3 3 3 4 5 6 6 7 7 7 7 7 8 8 8 8 8 8 7 7 6 6 6 5 5 5 5 6 6 7 8 10 11
9 8 7 7 6 6 5 4 4 3 3 3 4 4 5 5 6 6 6 6 7 7 7 7 7 7 8 8 8 7 7 7 6 7 6 6 6 6 7 7 7 9 11
10 9 8 8 8 7 5 5 4 4 4 4 4 4 5 5 5 6 6 6 6 6 7 7 7 7 8 8 8 7 7 7 7 7 7 7 7 6 7 7 8 9 10
10 10 9 9 8 8 7 6 5 5 4 5 5 5 5 5 6 6 6 6 6 6 6 7 7 8 8 8 8 8 8 8 8 8 8 8 8 8 8 9 9 9 10
10 11 10 10 9 8 8 7 6 5 5 5 6 6 6 6 6 6 6 7 7 7 7 7 8 9 9 9 9 9 9 9 9 10 10 10 10 10 10 10 10 11 11
11 11 11 10 9 9 8 8 7 7 7 7 6 7 7 7 7 7 7 7 8 8 8 9 9 9 10 9 10 10 11 11 11 12 12 12 11 11 11 11 12 12 12
Wind_Direction
122 116 111 94 86 78 78 75 70 65 54 49 45 41 37 36 32 32 32 31 30 32 36 31 23 64 97 147 178 200 209 215 221 216 215 216 216 217 214 210 205 204 203
123 121 113 97 89 84 84 78 73 64 54 46 41 36 32 34 34 31 31 33 30 23 19 11 11 40 49 186 194 207 216 218 217 217 216 216 214 213 216 216 215 213 212
132 126 113 106 97 95 92 81 69 55 47 41 36 31 30 31 29 27 28 27 23 19 14 358 337 335 305 263 227 220 221 220 218 219 219 219 215 211 214 218 219 216 215
142 134 124 117 104 98 94 86 63 49 41 34 29 26 27 24 20 17 15 14 11 3 356 347 327 296 279 261 240 231 227 230 227 224 223 221 219 216 217 219 219 218 215
149 143 133 126 110 101 95 82 63 49 33 28 24 22 22 19 16 11 3 358 354 346 335 323 309 285 268 255 243 239 233 232 229 228 229 222 219 221 221 221 220 216 216
155 150 137 126 127 110 93 75 53 37 20 20 23 22 20 17 13 5 357 349 344 337 330 321 308 282 265 253 244 241 238 233 229 230 230 226 223 222 223 222 220 217 220
159 154 150 142 133 129 94 63 43 33 19 25 28 23 18 15 10 1 355 348 340 337 332 324 310 290 272 255 245 242 243 238 232 230 230 231 229 227 228 221 219 220 223
166 160 156 144 133 121 82 65 41 29 27 28 26 20 16 11 4 358 353 348 341 337 330 321 313 304 281 264 248 240 243 241 232 227 227 228 229 229 229 225 222 221 222
168 162 152 144 135 109 80 77 52 35 32 29 23 18 12 7 4 357 353 352 350 345 338 330 317 304 289 269 251 238 236 235 234 232 227 227 229 230 228 225 226 224 223
167 162 159 152 150 136 101 89 58 30 28 26 20 15 11 9 6 2 359 360 358 353 345 339 333 315 301 278 257 245 235 232 234 236 233 230 228 230 230 229 228 225 224
174 170 169 168 164 153 144 98 44 29 23 19 13 9 8 8 7 7 6 4 1 358 354 345 336 322 308 289 268 251 239 235 232 234 235 233 232 231 231 227 225 226 226
181 183 180 175 161 151 136 85 38 21 15 10 7 6 4 5 8 9 6 5 3 2 359 351 343 337 322 300 271 253 243 239 234 232 232 234 234 235 235 231 228 227 227
192 196 186 180 173 161 147 84 23 15 4 358 2 3 2 4 9 10 9 8 8 7 6 3 357 355 348 331 295 262 245 240 236 234 237 236 236 237 236 233 229 230 232
196 194 193 194 187 185 196 296 353 355 346 349 356 2 6 7 9 11 13 12 11 11 11 11 10 4 1 352 329 288 256 248 242 240 239 239 241 240 236 231 229 232 235
198 198 196 196 197 202 222 267 307 332 350 351 359 1 8 10 11 12 14 15 15 14 14 17 16 12 10 9 3 347 296 257 247 246 244 246 248 246 238 232 232 234 238
203 200 198 197 200 208 231 264 290 330 353 353 355 3 10 10 10 11 12 15 17 17 18 21 23 24 22 22 20 11 348 291 258 254 251 250 250 247 242 239 237 235 240
205 201 200 200 203 215 233 261 272 303 339 347 353 359 5 8 8 8 10 15 19 20 21 25 27 27 28 27 22 12 357 333 297 279 266 261 259 254 243 241 242 241 245
206 203 205 206 207 217 232 251 255 284 316 337 350 355 358 3 6 10 14 17 17 19 20 20 22 21 21 21 17 9 356 339 317 299 284 275 265 256 248 243 244 247 248
208 208 210 214 215 222 233 245 245 265 292 325 342 349 354 359 5 11 13 13 14 16 16 17 18 16 13 12 7 360 351 340 323 308 294 289 274 258 254 249 247 252 251
204 209 216 219 222 226 232 236 239 256 281 310 334 346 351 356 1 5 9 9 11 13 14 15 15 13 11 10 8 1 356 348 330 313 308 297 283 269 261 252 251 253 255
209 213 215 223 229 233 235 238 239 251 272 296 323 337 343 352 357 359 1 3 4 8 9 11 15 17 14 7 5 2 0 358 353 337 322 304 288 280 274 265 260 258 258
214 217 221 226 232 234 235 238 243 255 268 287 308 323 331 341 349 352 355 358 358 359 2 6 9 11 8 6 3 360 359 0 356 348 335 319 306 296 288 282 272 264 262
219 222 229 233 233 230 231 237 247 260 270 282 298 308 317 330 339 345 346 347 349 351 354 356 356 356 356 356 356 354 353 352 347 344 337 324 312 305 298 293 286 273 268
222 227 233 231 230 230 235 242 249 263 278 284 288 297 304 315 323 330 336 336 336 338 341 342 345 347 346 347 349 349 347 345 344 341 334 324 313 306 302 297 291 283 277
226 231 235 231 231 235 240 244 250 263 275 284 287 292 298 307 315 320 326 328 327 330 333 333 336 338 340 339 340 341 340 338 335 332 330 324 315 306 301 298 296 290 284
232 234 234 232 234 239 242 245 252 262 271 279 286 293 298 304 311 314 316 320 322 325 328 329 329 331 333 335 335 335 337 336 333 330 326 321 315 308 304 300 296 292 287
Height
5906 5906 5906 5905 5905 5905 5905 5905 5904 5904 5903 5902 5901 5900 5899 5898 5897 5896 5895 5894 5894 5893 5893 5892 5891 5891 5891 5891 5891 5891 5891 5891 5892 5892 5893 5893 5894 5894 5895 5895 5896 5896 5897
5907 5906 5906 5906 5905 5906 5905 5905 5905 5904 5903 5902 5901 5900 5899 5898 5897 5896 5895 5894 5893 5893 5892 5892 5891 5891 5891 5891 5891 5891 5891 5891 5891 5892 5892 5892 5893 5893 5894 5895 5896 5896 5897
5907 5907 5907 5906 5906 5906 5906 5905 5905 5904 5903 5903 5902 5901 5899 5898 5897 5896 5895 5894 5893 5893 5892 5891 5891 5890 5890 5890 5890 5890 5890 5890 5891 5891 5891 5892 5892 5893 5893 5894 5895 5896 5896
5907 5907 5907 5907 5906 5906 5906 5906 5905 5904 5904 5903 5902 5901 5899 5898 5897 5896 5895 5894 5893 5892 5891 5891 5890 5890 5890 5890 5890 5889 5890 5890 5890 5890 5890 5891 5891 5892 5893 5893 5894 5895 5896
5907 5907 5907 5907 5907 5907 5906 5906 5905 5905 5904 5903 5902 5901 5899 5898 5897 5896 5894 5893 5892 5891 5890 5890 5889 5889 5888 5888 5888 5888 5888 5889 5889 5889 5889 5890 5890 5891 5892 5892 5893 5894 5895
5907 5907 5907 5907 5907 5907 5907 5906 5906 5905 5904 5903 5902 5901 5899 5898 5897 5895 5894 5893 5892 5891 5890 5889 5888 5888 5887 5887 5887 5887 5887 5887 5888 5888 5888 5889 5889 5890 5890 5891 5892 5893 5894
5907 5907 5907 5907 5907 5907 5907 5906 5906 5905 5904 5903 5902 5901 5899 5898 5897 5895 5894 5893 5891 5890 5888 5888 5887 5886 5886 5886 5886 5886 5886 5886 5887 5887 5887 5888 5888 5888 5889 5890 5890 5892 5893
5907 5907 5907 5907 5907 5907 5907 5906 5906 5905 5904 5904 5903 5901 5900 5898 5897 5895 5893 5892 5890 5889 5887 5886 5885 5885 5884 5884 5884 5884 5885 5885 5885 5885 5886 5886 5887 5887 5888 5888 5889 5890 5891
5907 5907 5907 5907 5907 5907 5907 5907 5906 5905 5905 5904 5903 5902 5900 5898 5897 5895 5893 5891 5889 5888 5886 5885 5884 5883 5883 5883 5883 5883 5883 5883 5884 5884 5885 5885 5886 5886 5887 5887 5888 5889 5890
5907 5907 5907 5908 5908 5907 5907 5907 5906 5906 5905 5904 5903 5902 5900 5898 5896 5895 5893 5891 5889 5887 5885 5884 5883 5882 5881 5881 5881 5881 5882 5882 5882 5883 5883 5884 5884 5885 5885 5886 5887 5888 5889
5907 5907 5907 5908 5907 5907 5907 5907 5906 5906 5905 5904 5903 5902 5900 5899 5896 5894 5892 5891 5889 5887 5885 5883 5882 5881 5880 5880 5880 5880 5880 5881 5881 5881 5882 5882 5883 5884 5884 5885 5885 5886 5887
5907 5907 5907 5908 5908 5907 5907 5907 5906 5906 5905 5904 5903 5902 5900 5898 5896 5894 5892 5890 5888 5886 5884 5883 5881 5880 5879 5879 5878 5879 5879 5879 5879 5880 5880 5881 5882 5882 5882 5883 5884 5884 5885
5906 5907 5907 5908 5908 5908 5907 5907 5906 5906 5905 5904 5903 5902 5900 5899 5897 5895 5893 5890 5888 5886 5884 5882 5881 5880 5879 5878 5878 5878 5878 5878 5878 5879 5879 5879 5880 5880 5881 5881 5882 5883 5884
5906 5906 5907 5907 5907 5908 5907 5907 5906 5906 5905 5904 5903 5902 5901 5899 5897 5895 5893 5890 5888 5887 5884 5882 5881 5880 5879 5878 5877 5877 5877 5877 5877 5877 5878 5878 5879 5879 5879 5880 5880 5881 5882
5905 5906 5906 5907 5907 5907 5907 5907 5906 5906 5905 5904 5903 5902 5901 5899 5897 5895 5893 5891 5889 5887 5885 5883 5881 5880 5879 5878 5877 5877 5876 5876 5876 5876 5877 5877 5877 5877 5878 5878 5878 5879 5879
5905 5906 5906 5906 5906 5907 5907 5907 5906 5906 5905 5904 5903 5902 5901 5899 5898 5896 5894 5892 5890 5888 5885 5884 5882 5880 5879 5878 5877 5877 5876 5876 5876 5875 5875 5875 5876 5876 5876 5876 5877 5877 5877
5904 5905 5905 5906 5906 5906 5906 5906 5906 5905 5905 5904 5903 5902 5901 5899 5898 5896 5894 5892 5890 5888 5886 5884 5883 5881 5880 5879 5878 5877 5876 5875 5875 5874 5874 5874 5874 5874 5874 5874 5875 5875 5875
5903 5904 5904 5905 5905 5906 5906 5906 5906 5905 5905 5904 5903 5902 5901 5899 5898 5896 5894 5892 5890 5889 5887 5885 5883 5882 5881 5879 5878 5877 5876 5875 5874 5874 5873 5873 5873 5873 5873 5872 5873 5873 5873
5902 5903 5904 5905 5905 5905 5906 5906 5905 5905 5904 5904 5903 5902 5901 5899 5898 5896 5894 5893 5891 5889 5887 5886 5884 5883 5881 5880 5878 5877 5876 5875 5874 5873 5872 5872 5871 5871 5871 5871 5871 5871 5871
5901 5902 5903 5904 5904 5905 5905 5905 5905 5905 5904 5903 5902 5902 5900 5899 5898 5896 5895 5893 5891 5890 5888 5886 5885 5883 5881 5880 5878 5877 5876 5874 5873 5872 5872 5871 5870 5870 5869 5869 5869 5869 5869
5901 5902 5903 5903 5904 5904 5904 5904 5904 5904 5904 5903 5902 5901 5900 5899 5898 5896 5895 5893 5892 5890 5888 5887 5885 5884 5882 5880 5879 5877 5876 5874 5873 5872 5871 5870 5869 5868 5868 5867 5867 5867 5867
5900 5901 5901 5902 5903 5903 5903 5903 5903 5903 5903 5902 5901 5901 5900 5899 5897 5896 5895 5893 5892 5890 5889 5887 5886 5884 5882 5881 5879 5877 5876 5875 5873 5871 5870 5869 5868 5867 5866 5865 5864 5864 5864
5898 5899 5900 5901 5902 5902 5902 5902 5902 5902 5902 5901 5901 5900 5899 5898 5897 5895 5894 5893 5891 5890 5889 5887 5886 5884 5883 5881 5879 5878 5876 5874 5872 5871 5869 5868 5866 5865 5864 5863 5862 5862 5861
5897 5898 5899 5900 5900 5901 5901 5901 5901 5901 5901 5900 5900 5899 5898 5897 5896 5895 5894 5892 5891 5890 5888 5887 5885 5884 5882 5880 5879 5877 5875 5873 5872 5870 5868 5866 5864 5863 5862 5861 5860 5859 5858
5895 5897 5897 5898 5899 5899 5900 5900 5900 5900 5900 5899 5899 5898 5897 5896 5895 5894 5893 5891 5890 5889 5888 5886 5885 5883 5881 5880 5878 5876 5874 5872 5870 5869 5867 5865 5863 5861 5859 5858 5857 5856 5855
5894 5895 5896 5896 5897 5898 5898 5898 5898 5899 5898 5898 5897 5897 5896 5895 5894 5893 5892 5890 5889 5888 5886 5885 5883 5882 5880 5879 5877 5875 5873 5871 5869 5867 5864 5862 5860 5858 5856 5855 5854 5852 5851